Wetbulb
28.80 29.80 30.82 31.56 32.25 32.81 33.15 33.54 33.45 33.53 33.58 33.35 33.08 33.10 33.20 33.20 33.49 33.98 34.32 34.01 34.53 35.01 35.34 35.29 35.52 35.21 34.51 33.67 33.20 33.06 33.01 32.93 32.74 32.65 32.60 32.75 33.53 33.98 34.26 34.51 34.56 34.56 34.78 35.20 35.22 35.02 34.74 34.15 34.26 35.09 35.62 35.03 34.59 34.37 34.47 34.89 34.38 34.26 34.34 34.81 35.13 35.15 35.10 35.33 35.75 36.18 36.68 37.29 37.96
30.10 30.32 30.63 31.12 31.54 32.08 32.64 32.94 33.28 33.35 33.38 33.58 33.51 33.26 32.98 33.10 33.57 33.93 34.05 33.74 34.68 35.02 35.31 35.70 34.82 34.07 33.53 33.20 32.80 32.51 32.41 32.41 32.19 32.20 32.16 32.12 32.86 33.43 33.92 34.40 34.42 34.57 34.74 34.89 34.83 35.22 35.17 33.98 34.20 34.99 35.56 35.31 34.74 34.31 34.14 34.37 34.40 34.09 33.79 33.49 34.00 34.26 34.48 34.45 34.76 35.28 35.89 36.60 37.20
30.59 30.46 30.37 30.66 30.78 31.45 32.25 32.98 33.05 32.50 32.05 32.47 33.08 33.15 33.06 33.33 33.82 34.35 34.77 34.94 34.40 34.16 34.40 35.37 34.54 33.87 33.38 33.10 32.81 32.44 32.22 32.29 32.05 32.12 32.27 32.45 32.57 32.91 33.39 34.01 34.04 34.18 34.28 34.42 34.55 35.07 35.19 34.29 34.42 34.88 35.39 35.63 34.87 34.37 33.98 33.61 33.93 33.87 33.55 32.95 33.74 34.19 34.61 35.01 34.35 34.55 35.26 36.10 36.31
30.33 30.44 30.70 30.84 30.68 30.59 31.06 32.50 32.08 31.68 31.85 32.82 32.79 32.81 33.01 33.56 34.17 34.58 34.61 34.08 33.75 33.88 34.26 34.53 34.17 33.70 33.25 32.84 32.43 32.26 32.11 32.04 31.72 31.72 31.94 32.23 32.31 32.46 32.72 33.30 33.60 33.83 33.93 33.92 33.92 34.11 34.27 34.00 34.69 35.06 35.10 34.68 34.27 34.21 34.47 34.62 33.72 33.68 33.78 33.50 34.03 34.14 34.42 34.87 34.32 34.57 35.18 35.47 35.34
30.47 30.69 30.98 31.24 30.95 30.83 30.81 31.06 31.05 31.30 31.77 32.56 33.06 33.43 33.68 33.96 34.21 34.14 34.14 34.14 34.50 34.80 34.61 33.46 33.52 33.12 32.72 32.12 31.52 31.29 31.02 30.85 31.10 31.34 31.65 31.83 32.00 32.24 32.44 32.58 33.09 33.63 33.84 33.65 33.30 33.49 33.65 33.27 34.69 35.18 34.98 34.04 34.71 34.92 34.68 34.09 33.63 33.42 33.58 34.30 34.50 34.53 34.54 34.22 34.57 34.63 34.78 35.07 34.78
30.57 30.65 30.69 30.72 30.72 30.59 30.65 30.88 30.96 31.26 31.72 32.33 32.30 32.44 33.00 34.21 34.40 34.24 34.19 34.19 34.26 33.79 33.10 32.47 32.45 32.27 31.96 31.28 30.69 30.37 30.20 29.98 30.28 30.59 30.89 31.26 31.78 31.94 31.81 31.95 32.46 33.02 33.45 33.30 32.78 32.65 32.67 32.74 34.47 35.00 35.10 34.80 34.57 34.34 34.10 33.65 33.64 33.36 33.31 34.03 34.58 34.37 33.92 33.67 34.17 34.25 34.21 34.03 33.86
30.25 30.29 30.27 30.27 30.13 30.20 30.53 30.83 31.12 31.20 31.45 31.85 31.49 31.58 31.91 32.77 32.73 32.45 32.48 33.00 33.20 32.95 32.66 32.57 32.38 32.23 31.80 31.00 30.76 30.37 30.06 30.08 29.93 29.76 29.87 30.75 31.16 31.33 31.53 31.95 31.97 32.22 32.44 32.54 32.12 32.12 32.06 31.81 33.71 34.58 34.84 34.71 35.00 34.37 33.43 33.18 33.65 33.69 33.62 33.78 34.63 34.30 33.57 32.94 33.49 33.71 33.67 33.17 33.15
29.72 29.81 30.04 30.19 29.98 29.96 30.03 30.37 30.67 30.96 31.47 32.08 31.48 31.15 31.13 31.20 31.20 31.33 31.57 31.83 32.25 32.14 32.18 32.29 31.58 31.20 30.89 30.53 30.34 30.15 29.86 29.60 29.92 29.76 29.72 30.30 30.32 30.66 30.92 31.16 31.17 31.30 31.44 31.67 31.67 31.67 31.72 31.90 33.39 33.94 34.08 34.16 35.08 34.63 33.59 32.80 32.94 33.26 33.61 33.76 34.33 34.16 33.56 33.17 32.98 33.17 33.27 33.00 33.07
29.69 29.92 29.99 30.08 30.19 30.21 30.18 30.05 30.10 30.41 30.76 30.78 30.45 30.38 30.38 30.56 30.37 30.30 30.61 31.22 31.42 31.39 31.27 31.48 30.79 30.25 29.88 29.81 29.76 30.00 30.15 30.33 30.23 30.16 30.10 29.72 29.80 30.06 30.43 30.77 30.81 30.94 31.15 31.33 31.33 31.12 31.19 32.08 33.18 33.65 33.94 34.63 35.06 34.61 33.78 32.90 32.57 32.62 33.12 33.69 33.92 33.88 33.68 33.19 32.56 32.55 32.81 32.88 33.09
30.00 30.07 30.08 30.20 30.14 30.06 29.87 29.69 29.74 29.72 29.81 29.78 29.65 29.69 29.83 30.19 29.87 29.70 30.07 31.14 30.73 30.31 30.10 30.17 29.86 29.81 29.75 29.72 30.10 30.57 30.83 31.10 31.11 30.96 30.67 30.65 30.38 30.38 30.53 31.01 30.93 31.14 31.41 31.39 31.53 31.12 30.89 31.62 32.53 32.92 33.19 33.45 33.60 33.37 33.01 32.65 32.53 32.41 32.74 33.74 33.74 33.60 33.32 33.03 32.55 32.30 32.28 32.67 32.90
29.58 29.62 29.59 29.86 29.74 29.48 29.28 29.22 29.33 29.51 29.61 29.79 29.32 29.22 29.27 29.38 29.25 29.54 29.86 30.11 29.91 29.55 29.43 29.87 29.79 29.96 30.17 30.55 30.89 31.19 31.42 31.69 31.83 31.72 31.52 31.35 31.24 31.13 31.12 31.35 31.27 31.35 31.46 31.69 31.68 31.71 31.67 31.88 32.11 32.09 32.06 32.62 32.46 32.51 32.43 32.09 32.02 32.07 32.28 33.12 33.23 33.10 32.86 32.82 32.72 32.53 32.41 32.30 32.43
28.87 28.92 28.90 28.87 28.66 28.55 28.53 28.48 29.10 29.43 29.57 29.62 29.66 29.59 29.69 29.93 29.68 29.84 29.87 29.31 29.32 29.69 30.03 30.36 30.37 30.46 30.61 31.12 31.27 31.42 31.53 31.59 31.54 31.41 31.35 31.37 31.47 31.49 31.57 31.64 31.55 31.61 31.71 31.80 31.91 32.09 32.17 32.05 32.04 31.90 31.64 31.53 32.18 32.46 32.34 31.69 31.58 31.62 31.81 32.20 32.44 32.58 32.63 32.74 32.56 32.67 32.56 32.19 32.11
28.27 28.24 28.24 28.11 27.88 27.80 28.03 28.37 29.29 29.90 30.19 30.19 30.31 30.53 30.78 30.90 30.62 30.38 30.11 29.64 29.75 30.20 30.68 30.79 30.77 30.70 30.75 30.92 31.10 31.21 31.39 31.42 31.24 31.26 31.36 31.38 31.53 31.63 31.69 31.81 31.97 32.01 32.16 32.30 32.37 32.41 32.44 32.30 31.85 31.70 31.46 31.29 31.89 32.20 32.05 31.49 31.29 31.27 31.37 31.48 31.58 31.85 32.16 32.43 32.51 32.48 32.22 31.75 31.76
27.72 27.80 27.72 27.70 27.57 27.81 28.33 29.01 30.18 30.82 30.87 30.55 30.67 30.77 30.93 30.90 30.94 30.65 30.41 29.99 29.94 30.04 30.29 30.49 30.57 30.72 30.72 30.61 30.66 30.69 30.67 30.83 30.69 30.66 30.62 30.82 31.20 31.30 31.40 31.74 31.86 32.15 32.46 32.88 32.88 32.63 32.35 32.25 31.99 31.74 31.41 31.21 31.40 31.51 31.51 31.38 31.23 31.08 31.08 31.00 31.06 31.30 31.58 32.02 32.27 32.21 32.07 31.64 31.51
27.49 27.65 27.76 27.89 27.97 28.66 29.40 29.74 30.77 31.01 30.84 30.44 30.59 30.67 30.72 30.75 30.71 30.49 30.18 29.62 29.46 29.64 29.76 29.81 29.98 30.16 30.30 30.32 30.14 30.06 30.06 30.14 30.05 29.95 29.99 30.10 30.46 30.63 30.82 31.13 31.36 31.78 32.15 32.54 32.82 32.73 32.58 32.31 32.19 31.95 31.71 31.51 31.40 31.32 31.27 31.21 31.18 31.21 31.23 31.06 31.12 31.23 31.41 31.67 31.97 32.07 31.97 31.65 31.48
27.65 27.84 28.05 28.28 28.61 29.16 29.72 30.08 30.85 30.81 30.59 30.30 30.23 30.19 30.12 30.19 30.15 29.95 29.50 28.96 29.00 29.18 29.15 28.92 29.04 29.33 29.59 29.73 29.71 29.63 29.55 29.55 29.42 29.38 29.30 29.38 29.60 29.84 30.09 30.37 30.59 30.92 31.29 31.67 32.09 32.42 32.60 32.75 32.90 32.79 32.54 32.38 32.16 31.99 31.91 31.97 31.84 31.77 31.61 31.57 31.48 31.46 31.38 31.60 31.71 31.90 31.88 31.79 31.48
27.82 28.00 28.23 28.54 28.74 28.99 29.33 29.70 30.16 30.20 29.96 29.61 29.49 29.39 29.42 29.43 29.45 29.26 28.92 28.53 28.42 28.35 28.16 28.08 28.34 28.53 28.69 28.79 29.09 29.09 28.98 28.87 28.82 28.79 28.77 28.82 28.88 29.09 29.26 29.48 29.83 30.13 30.44 30.70 31.05 31.45 32.07 32.85 33.40 33.71 33.83 33.63 33.50 33.43 33.31 33.21 33.05 32.78 32.56 32.46 32.22 32.12 31.90 31.94 31.87 31.92 31.93 31.80 31.59
27.69 28.03 28.36 28.61 28.64 28.74 28.84 29.06 29.24 29.14 29.01 28.73 28.66 28.68 28.68 28.63 28.40 28.32 28.21 28.00 27.81 27.43 27.19 27.16 27.60 27.84 27.89 27.84 28.16 28.40 28.48 28.21 28.13 28.13 28.29 28.29 28.45 28.53 28.67 28.86 29.18 29.45 29.78 30.09 30.48 31.01 31.60 32.32 32.95 33.61 34.08 34.20 34.15 34.23 34.20 34.06 33.97 33.78 33.53 33.36 33.15 32.98 32.89 32.74 32.46 32.36 32.27 32.06 31.89
27.56 27.98 28.23 28.46 28.51 28.56 28.61 28.66 28.53 28.40 28.25 28.09 28.01 27.88 27.77 27.47 27.34 27.23 27.23 27.17 27.12 26.90 26.64 26.61 26.85 27.05 27.13 27.08 27.30 27.62 27.84 27.68 27.51 27.57 27.60 27.81 27.92 28.00 28.08 28.32 28.67 29.00 29.35 29.73 30.20 30.68 31.05 31.57 32.29 32.83 33.40 33.68 34.01 34.08 34.32 34.30 34.25 34.29 34.17 34.05 33.88 33.75 33.46 33.31 33.05 32.91 32.88 32.56 32.50
27.35 27.82 28.15 28.33 28.32 28.30 28.37 28.43 28.20 27.91 27.72 27.61 27.18 26.89 26.67 26.55 26.55 26.31 26.20 26.20 26.55 26.58 26.35 26.08 26.16 26.30 26.47 26.56 26.58 26.83 27.10 27.43 27.19 27.08 27.13 27.30 27.43 27.54 27.81 28.16 28.57 28.81 29.13 29.49 29.76 29.96 30.30 30.60 31.31 31.87 32.37 32.80 33.13 33.41 33.73 34.02 34.12 34.19 34.28 34.29 34.17 33.92 33.75 33.62 33.66 33.56 33.33 33.08 33.00
27.32 27.68 27.96 28.06 28.06 28.06 28.01 28.02 27.76 27.33 26.95 26.67 26.23 26.00 25.88 25.75 25.75 25.60 25.60 25.83 26.07 26.12 25.86 25.66 25.65 25.74 25.79 25.92 25.95 26.14 26.50 27.05 26.94 26.77 26.80 27.08 27.27 27.62 28.03 28.41 28.57 28.68 28.81 29.06 29.25 29.39 29.61 29.91 30.32 30.76 31.23 31.62 32.02 32.38 32.90 33.16 33.42 33.64 33.82 34.03 33.94 33.89 33.99 34.00 33.90 33.66 33.55 33.36 33.26
27.25 27.49 27.80 27.90 27.82 27.80 27.75 27.52 27.10 26.58 26.16 25.84 25.59 25.39 25.26 25.21 25.23 25.22 25.42 25.73 25.76 25.58 25.43 25.29 25.37 25.40 25.43 25.56 25.64 25.81 26.14 26.64 26.61 26.69 26.94 27.27 27.52 27.84 28.11 28.38 28.28 28.20 28.23 28.42 28.64 28.83 29.16 29.40 29.73 30.04 30.31 30.56 30.85 31.31 31.73 32.00 32.33 32.61 32.89 33.18 33.26 33.48 33.67 33.86 33.62 33.45 33.43 33.33 33.48
27.25 27.35 27.45 27.77 27.59 27.48 27.25 26.86 26.33 25.83 25.40 25.13 24.96 24.93 24.83 24.83 24.89 24.98 25.16 25.23 25.28 25.16 25.06 25.28 25.40 25.42 25.54 25.60 25.68 25.74 25.82 25.99 26.16 26.53 27.01 27.43 27.44 27.69 27.85 28.12 27.85 27.74 27.80 28.04 28.27 28.55 28.77 29.05 29.37 29.62 29.84 29.97 30.24 30.53 30.86 31.27 31.50 31.71 31.87 32.17 32.44 32.65 33.03 33.30 33.11 33.18 33.33 33.42 33.53
27.00 27.08 27.40 28.11 27.30 26.87 26.45 26.07 25.62 25.18 24.84 24.69 24.57 24.48 24.47 24.49 24.63 24.71 24.77 24.77 24.80 24.80 24.97 25.29 25.49 25.63 25.66 25.84 25.87 25.90 25.98 26.01 26.25 26.69 26.97 27.39 27.36 27.51 27.55 27.63 27.58 27.58 27.74 28.10 28.67 29.09 29.29 29.15 29.28 29.58 29.71 29.90 30.01 30.23 30.45 30.73 30.88 31.00 31.14 31.29 31.56 31.84 32.14 32.60 32.81 32.89 33.03 33.29 33.28
26.53 26.55 26.72 27.08 26.62 26.20 25.78 25.32 24.90 24.68 24.55 24.48 24.40 24.29 24.19 24.24 24.37 24.43 24.45 24.48 24.57 24.62 24.80 24.97 25.23 25.55 25.79 25.88 26.11 26.54 26.77 26.85 26.89 26.93 26.99 27.13 27.23 27.37 27.26 27.22 27.24 27.36 27.73 28.19 29.22 29.96 30.17 29.74 29.80 29.71 29.61 29.93 30.04 30.23 30.48 30.53 30.85 30.92 30.82 30.92 30.94 31.12 31.25 31.44 32.13 32.48 32.77 33.07 33.24
25.98 25.95 25.98 26.02 25.86 25.44 24.99 24.66 24.49 24.36 24.35 24.37 24.28 24.18 24.04 24.05 24.22 24.18 24.17 24.19 24.34 24.57 24.83 25.03 25.15 25.59 26.00 26.20 26.54 26.89 27.06 27.01 26.93 26.80 26.67 26.56 26.76 26.84 26.76 26.69 26.74 27.00 27.63 28.51 29.17 29.64 29.93 30.20 30.26 29.83 29.41 29.38 29.59 29.66 29.91 30.27 30.74 31.03 31.12 31.09 30.93 30.73 30.66 30.63 30.95 31.38 32.03 32.65 33.05
25.11 25.11 25.26 25.44 25.09 24.72 24.49 24.43 24.32 24.21 24.13 24.04 23.92 23.96 23.95 24.11 24.23 24.11 24.03 24.05 24.31 24.65 24.94 25.15 25.38 25.84 26.22 26.54 26.62 26.57 26.56 26.40 26.47 26.54 26.49 26.29 26.15 26.05 26.11 26.19 26.41 26.89 27.62 28.66 29.11 29.38 29.52 29.89 30.12 29.96 29.66 29.10 29.04 29.05 29.21 29.45 30.06 30.61 30.98 30.99 30.99 30.86 30.73 30.43 30.33 30.50 30.96 31.61 32.33
24.25 24.35 24.50 24.38 24.20 24.24 24.26 24.23 23.98 23.87 23.78 23.75 23.79 23.93 24.06 24.13 23.96 23.92 23.90 24.11 24.39 24.65 24.94 25.23 25.75 26.20 26.48 26.27 26.14 26.07 25.99 25.75 25.95 26.04 26.11 26.06 25.85 25.57 25.57 25.76 25.94 26.60 27.55 28.67 29.03 29.26 29.55 29.72 29.95 30.10 29.80 28.96 28.75 28.78 28.88 28.73 28.91 29.26 29.76 30.26 30.67 31.07 31.21 31.35 31.27 31.20 31.23 31.28 31.62
23.73 23.63 23.58 23.44 23.65 23.87 23.98 23.82 23.60 23.48 23.53 23.69 23.80 23.91 24.01 23.91 23.89 23.90 23.87 24.01 24.20 24.34 24.60 25.20 25.74 26.07 26.07 25.62 25.59 25.60 25.57 25.43 25.63 25.61 25.64 25.44 25.41 25.38 25.43 25.57 25.71 26.39 27.55 28.80 28.97 29.26 29.38 29.61 29.76 29.91 30.01 29.84 29.06 28.67 28.55 28.34 28.44 28.44 28.69 28.97 29.52 30.22 30.93 31.60 31.90 32.11 32.04 31.93 31.94
23.61 23.22 22.89 23.03 23.25 23.49 23.59 23.42 23.43 23.42 23.57 23.88 23.88 23.79 23.72 23.64 23.63 23.63 23.64 23.68 23.84 24.11 24.67 25.32 25.37 25.20 25.00 24.83 24.91 24.86 24.83 24.89 25.05 25.05 25.03 24.92 24.74 24.83 25.00 25.31 25.51 26.25 27.28 28.50 28.78 29.03 29.27 29.50 29.53 29.60 29.69 29.88 29.06 28.62 28.29 28.17 28.23 28.04 28.10 28.26 28.59 29.13 29.62 30.30 31.03 31.72 32.18 32.43 32.52
23.23 22.72 22.50 22.64 22.92 23.16 23.27 23.31 23.43 23.55 23.64 23.79 23.58 23.44 23.35 23.28 23.22 23.30 23.54 23.61 23.94 24.28 24.66 24.91 24.59 24.38 24.29 24.34 24.28 24.17 24.12 24.28 24.44 24.49 24.48 24.28 24.16 24.28 24.57 24.83 25.08 25.77 26.85 28.20 28.51 28.85 29.05 29.34 29.43 29.49 29.64 29.70 28.96 28.44 28.10 28.11 28.05 27.90 27.93 27.95 28.09 28.30 28.59 29.02 29.53 30.33 30.97 31.70 32.02
22.78 22.39 22.34 22.51 22.71 22.90 23.15 23.38 23.39 23.45 23.35 23.22 23.06 23.06 22.92 22.92 23.10 23.31 23.58 23.88 24.07 24.17 24.08 24.03 23.80 23.71 23.69 23.77 23.72 23.75 23.74 23.72 23.79 23.87 23.92 23.88 23.88 23.94 24.11 24.40 24.71 25.31 26.37 27.89 28.32 28.58 28.87 29.16 29.27 29.39 29.39 29.46 28.82 28.36 28.10 27.96 27.97 27.97 27.99 27.92 27.90 28.01 28.10 28.22 28.55 29.03 29.62 30.33 30.93
22.18 22.13 22.22 22.48 22.67 22.95 23.12 23.27 23.23 23.09 23.00 22.83 22.70 22.74 22.67 22.79 23.08 23.36 23.56 23.82 23.90 23.91 23.79 23.52 23.38 23.20 23.10 23.09 23.09 23.09 23.24 23.34 23.41 23.60 23.69 23.72 23.80 23.80 23.83 24.11 24.48 25.40 26.69 27.92 28.18 28.50 28.73 29.06 29.26 29.33 29.36 29.42 28.88 28.35 28.06 28.01 28.01 28.01 27.97 28.03 28.06 28.13 28.13 28.10 28.19 28.44 28.72 29.12 29.70
21.35 21.81 22.34 22.56 22.83 22.91 22.89 22.75 22.68 22.45 22.33 22.20 22.25 22.34 22.42 22.49 22.63 22.86 23.10 23.47 23.70 23.81 23.81 23.63 23.34 23.17 23.08 23.17 22.97 22.86 22.92 23.19 23.27 23.36 23.51 23.75 23.78 23.75 23.71 23.88 24.31 25.69 27.15 27.83 28.15 28.38 28.73 28.92 29.19 29.34 29.40 29.35 28.88 28.51 28.23 28.04 27.99 27.90 28.01 27.98 28.19 28.23 28.35 28.24 28.41 28.39 28.52 28.64 28.97
21.30 21.70 22.13 22.36 22.61 22.66 22.53 22.11 22.04 21.92 21.85 21.68 21.78 21.92 22.12 22.25 22.35 22.50 22.74 23.13 23.58 23.64 23.50 23.38 23.32 23.34 23.27 23.35 23.25 23.12 22.99 22.89 23.06 23.27 23.47 23.73 23.62 23.54 23.51 23.65 24.14 25.54 27.11 27.82 28.05 28.35 28.62 28.83 29.10 29.28 29.33 29.09 28.52 28.30 28.00 27.88 27.79 27.73 27.80 27.88 28.02 28.08 28.16 28.39 28.49 28.65 28.69 28.74 28.89
21.47 21.24 21.12 21.50 21.97 22.18 22.02 21.79 21.60 21.50 21.36 21.26 21.20 21.38 21.68 22.01 22.26 22.52 22.83 23.08 23.33 23.22 23.01 22.80 22.91 22.91 22.87 22.69 23.01 23.14 23.16 23.21 23.21 23.32 23.56 23.76 23.56 23.38 23.21 23.30 23.82 25.23 26.68 27.66 28.01 28.36 28.59 28.86 28.96 29.14 29.13 28.81 28.23 27.95 27.82 27.58 27.58 27.55 27.61 27.63 27.74 27.93 28.14 28.40 28.53 28.78 28.88 28.89 28.94
21.29 20.85 20.67 21.14 21.60 21.76 21.69 21.51 21.27 20.96 20.83 20.78 20.87 21.10 21.35 21.62 21.99 22.50 22.92 23.25 23.13 22.78 22.54 22.47 22.53 22.55 22.52 22.53 22.78 22.95 23.23 23.38 23.33 23.32 23.38 23.64 23.50 23.35 23.15 23.27 23.59 24.57 25.89 27.30 27.88 28.29 28.58 28.85 29.09 29.15 28.91 28.24 27.82 27.59 27.44 27.37 27.34 27.31 27.28 27.37 27.53 27.91 28.21 28.58 28.79 28.90 29.10 29.04 29.05
21.32 21.12 20.95 21.17 21.42 21.32 21.25 21.09 20.72 20.50 20.32 20.50 20.82 21.16 21.35 21.66 21.96 22.38 22.92 23.42 23.07 22.60 22.27 22.28 22.34 22.37 22.45 22.78 22.95 23.03 23.25 23.51 23.45 23.44 23.41 23.47 23.56 23.47 23.32 23.24 23.59 24.42 25.55 27.11 28.01 28.48 28.89 29.19 29.43 29.52 29.17 28.14 27.75 27.57 27.42 27.23 27.11 27.01 27.09 27.09 27.43 27.78 28.16 28.65 28.85 29.02 29.16 29.23 29.62
21.50 21.39 21.33 21.24 21.07 20.88 20.74 20.56 20.33 20.16 20.18 20.44 20.69 21.00 21.31 21.65 21.90 22.56 23.29 23.65 23.27 22.85 22.49 22.36 22.19 22.30 22.57 23.00 23.00 23.02 23.13 23.39 23.65 23.73 23.73 23.68 24.00 24.20 24.14 23.85 24.11 24.78 25.85 27.33 28.20 28.78 29.11 29.49 29.70 29.85 29.58 28.77 28.35 28.00 27.76 27.48 27.15 26.93 26.98 27.09 27.28 27.54 27.83 28.44 28.77 28.95 29.15 29.27 30.52
21.51 21.38 21.14 21.06 20.81 20.60 20.39 20.11 20.07 20.16 20.36 20.50 20.52 20.84 21.15 21.46 21.94 22.85 23.58 23.60 23.41 23.10 22.74 22.62 22.39 22.53 22.89 23.23 23.09 23.02 23.01 23.33 23.79 23.96 24.20 24.20 24.61 25.31 25.65 24.78 24.72 25.16 25.91 27.24 28.26 28.85 29.14 29.56 29.77 30.06 29.85 29.09 28.71 28.42 28.16 27.82 27.31 27.04 26.93 27.06 27.17 27.28 27.54 28.06 28.51 28.84 29.02 29.16 30.32
21.58 21.29 20.99 20.79 20.59 20.37 20.04 19.83 19.90 20.16 20.45 20.42 20.46 20.84 21.38 21.90 22.35 22.93 23.34 23.27 23.25 23.07 22.97 22.79 22.79 22.82 23.16 23.41 23.26 23.10 23.09 23.15 23.59 24.08 24.45 24.55 24.87 25.54 25.83 25.08 24.90 25.07 25.53 26.69 27.89 28.62 29.21 29.59 29.89 30.30 30.23 29.45 29.06 28.84 28.49 28.01 27.39 26.99 26.73 26.94 27.07 27.24 27.33 27.65 28.18 28.64 28.89 29.08 29.68
MSLP
1018.42 1018.42 1018.42 1018.42 1018.42 1018.42 1018.38 1018.38 1018.30 1018.26 1018.26 1018.26 1018.26 1018.22 1018.14 1018.14 1018.10 1017.98 1017.86 1017.82 1017.74 1017.62 1017.50 1017.38 1017.26 1017.14 1017.02 1016.98 1016.86 1016.82 1016.74 1016.66 1016.54 1016.46 1016.38 1016.30 1016.22 1016.06 1015.94 1015.86 1015.74 1015.70 1015.58 1015.50 1015.38 1015.26 1015.18 1015.10 1015.06 1014.98 1014.90 1014.86 1014.86 1014.82 1014.82 1014.78 1014.82 1014.86 1014.90 1014.90 1014.94 1014.94 1014.94 1014.94 1014.90 1014.90 1014.86 1014.82 1014.74
1018.34 1018.34 1018.34 1018.34 1018.34 1018.34 1018.30 1018.26 1018.18 1018.14 1018.14 1018.10 1018.02 1017.98 1017.98 1017.98 1017.90 1017.82 1017.70 1017.58 1017.50 1017.42 1017.26 1017.18 1017.10 1016.98 1016.90 1016.82 1016.74 1016.70 1016.66 1016.54 1016.46 1016.38 1016.26 1016.18 1016.10 1015.98 1015.86 1015.74 1015.62 1015.58 1015.46 1015.34 1015.26 1015.14 1015.02 1014.98 1014.90 1014.86 1014.78 1014.70 1014.70 1014.66 1014.58 1014.54 1014.54 1014.58 1014.66 1014.70 1014.70 1014.70 1014.70 1014.70 1014.70 1014.66 1014.66 1014.62 1014.58
1018.26 1018.26 1018.26 1018.26 1018.26 1018.26 1018.22 1018.14 1018.10 1018.06 1017.98 1017.90 1017.86 1017.82 1017.78 1017.74 1017.66 1017.58 1017.46 1017.34 1017.26 1017.22 1017.14 1016.98 1016.90 1016.86 1016.74 1016.66 1016.58 1016.54 1016.50 1016.42 1016.34 1016.26 1016.18 1016.10 1015.98 1015.86 1015.78 1015.70 1015.58 1015.46 1015.34 1015.26 1015.14 1014.98 1014.82 1014.74 1014.70 1014.66 1014.58 1014.54 1014.54 1014.46 1014.42 1014.34 1014.34 1014.38 1014.42 1014.46 1014.42 1014.42 1014.46 1014.42 1014.42 1014.42 1014.42 1014.42 1014.38
1018.22 1018.22 1018.22 1018.18 1018.14 1018.14 1018.14 1018.06 1017.98 1017.98 1017.86 1017.78 1017.70 1017.66 1017.58 1017.54 1017.42 1017.34 1017.26 1017.14 1017.10 1017.02 1016.94 1016.86 1016.78 1016.70 1016.58 1016.54 1016.46 1016.42 1016.30 1016.26 1016.22 1016.14 1016.10 1015.98 1015.86 1015.78 1015.66 1015.58 1015.46 1015.38 1015.26 1015.14 1014.98 1014.82 1014.70 1014.58 1014.54 1014.42 1014.38 1014.30 1014.30 1014.26 1014.22 1014.14 1014.14 1014.14 1014.10 1014.14 1014.14 1014.14 1014.14 1014.14 1014.14 1014.14 1014.14 1014.14 1014.10
1018.14 1018.14 1018.14 1018.10 1018.02 1017.98 1017.98 1017.98 1017.94 1017.86 1017.74 1017.70 1017.58 1017.50 1017.42 1017.34 1017.26 1017.14 1017.06 1016.98 1016.90 1016.82 1016.70 1016.66 1016.62 1016.54 1016.42 1016.38 1016.30 1016.22 1016.14 1016.10 1016.06 1016.02 1015.94 1015.82 1015.70 1015.58 1015.50 1015.42 1015.38 1015.26 1015.14 1014.98 1014.86 1014.70 1014.54 1014.46 1014.34 1014.26 1014.14 1014.10 1014.06 1013.98 1013.90 1013.86 1013.90 1013.86 1013.86 1013.82 1013.78 1013.78 1013.82 1013.86 1013.86 1013.86 1013.86 1013.86 1013.82
1018.10 1018.06 1017.98 1017.98 1017.94 1017.90 1017.86 1017.86 1017.78 1017.70 1017.66 1017.58 1017.50 1017.42 1017.26 1017.18 1017.10 1017.02 1016.98 1016.86 1016.70 1016.62 1016.54 1016.50 1016.42 1016.34 1016.26 1016.18 1016.14 1016.10 1016.02 1015.98 1015.90 1015.86 1015.78 1015.66 1015.54 1015.42 1015.38 1015.26 1015.18 1015.10 1014.98 1014.90 1014.78 1014.62 1014.50 1014.42 1014.22 1014.10 1013.98 1013.94 1013.86 1013.74 1013.66 1013.70 1013.70 1013.70 1013.66 1013.62 1013.50 1013.50 1013.54 1013.58 1013.58 1013.58 1013.58 1013.62 1013.62
1017.98 1017.98 1017.94 1017.90 1017.86 1017.82 1017.78 1017.74 1017.62 1017.58 1017.54 1017.42 1017.42 1017.30 1017.18 1017.10 1016.98 1016.90 1016.82 1016.70 1016.58 1016.46 1016.42 1016.30 1016.26 1016.18 1016.14 1016.06 1015.98 1015.94 1015.86 1015.78 1015.70 1015.62 1015.58 1015.46 1015.34 1015.22 1015.14 1015.02 1014.94 1014.86 1014.86 1014.70 1014.66 1014.54 1014.42 1014.30 1014.14 1013.98 1013.86 1013.74 1013.70 1013.58 1013.54 1013.54 1013.54 1013.50 1013.46 1013.38 1013.26 1013.22 1013.26 1013.26 1013.26 1013.26 1013.34 1013.34 1013.42
1017.94 1017.90 1017.86 1017.78 1017.74 1017.70 1017.66 1017.58 1017.50 1017.42 1017.38 1017.26 1017.26 1017.18 1017.06 1016.94 1016.86 1016.78 1016.66 1016.54 1016.46 1016.38 1016.26 1016.14 1016.14 1016.06 1016.02 1015.94 1015.86 1015.78 1015.70 1015.62 1015.50 1015.42 1015.30 1015.22 1015.10 1014.98 1014.90 1014.82 1014.74 1014.70 1014.58 1014.54 1014.46 1014.38 1014.26 1014.14 1014.02 1013.86 1013.70 1013.58 1013.50 1013.42 1013.34 1013.34 1013.30 1013.26 1013.26 1013.14 1012.98 1012.94 1012.94 1012.98 1012.98 1012.98 1013.02 1013.10 1013.14
1017.86 1017.82 1017.70 1017.66 1017.62 1017.58 1017.46 1017.42 1017.38 1017.34 1017.30 1017.22 1017.14 1017.06 1016.94 1016.82 1016.74 1016.66 1016.54 1016.46 1016.34 1016.26 1016.14 1016.06 1016.02 1015.98 1015.86 1015.82 1015.74 1015.66 1015.54 1015.42 1015.26 1015.14 1015.06 1014.98 1014.86 1014.74 1014.66 1014.58 1014.54 1014.42 1014.34 1014.26 1014.22 1014.14 1014.06 1013.98 1013.86 1013.66 1013.50 1013.42 1013.26 1013.14 1013.06 1013.10 1013.10 1013.06 1012.98 1012.90 1012.78 1012.70 1012.62 1012.66 1012.70 1012.74 1012.78 1012.82 1012.86
1017.78 1017.70 1017.58 1017.54 1017.46 1017.38 1017.34 1017.26 1017.26 1017.26 1017.22 1017.14 1016.98 1016.86 1016.78 1016.70 1016.58 1016.54 1016.46 1016.34 1016.22 1016.14 1016.10 1015.98 1015.90 1015.82 1015.74 1015.70 1015.58 1015.42 1015.30 1015.18 1015.06 1014.94 1014.82 1014.70 1014.58 1014.50 1014.42 1014.30 1014.26 1014.14 1014.06 1013.98 1013.94 1013.90 1013.86 1013.74 1013.62 1013.42 1013.26 1013.14 1013.02 1012.90 1012.86 1012.82 1012.82 1012.82 1012.70 1012.58 1012.54 1012.46 1012.42 1012.38 1012.42 1012.46 1012.50 1012.50 1012.54
1017.66 1017.58 1017.46 1017.42 1017.34 1017.26 1017.26 1017.26 1017.18 1017.14 1017.10 1016.98 1016.86 1016.74 1016.62 1016.54 1016.42 1016.38 1016.26 1016.18 1016.14 1016.02 1015.94 1015.86 1015.78 1015.70 1015.58 1015.46 1015.34 1015.22 1015.10 1014.94 1014.82 1014.70 1014.54 1014.42 1014.34 1014.26 1014.14 1014.02 1013.94 1013.86 1013.74 1013.70 1013.58 1013.58 1013.58 1013.50 1013.34 1013.22 1013.02 1012.86 1012.78 1012.70 1012.66 1012.58 1012.54 1012.54 1012.42 1012.30 1012.26 1012.22 1012.14 1012.10 1012.10 1012.14 1012.22 1012.22 1012.22
1017.54 1017.42 1017.34 1017.26 1017.26 1017.26 1017.26 1017.26 1017.14 1017.06 1016.94 1016.86 1016.70 1016.54 1016.42 1016.34 1016.26 1016.18 1016.10 1016.02 1015.98 1015.86 1015.70 1015.66 1015.58 1015.50 1015.38 1015.26 1015.10 1014.98 1014.82 1014.70 1014.62 1014.50 1014.42 1014.22 1014.14 1013.98 1013.90 1013.82 1013.70 1013.58 1013.42 1013.34 1013.30 1013.26 1013.22 1013.14 1013.02 1012.90 1012.78 1012.66 1012.54 1012.46 1012.38 1012.34 1012.30 1012.26 1012.14 1012.06 1012.02 1011.98 1011.90 1011.82 1011.82 1011.86 1011.86 1011.86 1011.90
1017.42 1017.34 1017.26 1017.26 1017.26 1017.26 1017.26 1017.18 1017.06 1016.90 1016.78 1016.66 1016.50 1016.38 1016.26 1016.14 1016.10 1015.98 1015.94 1015.86 1015.78 1015.70 1015.58 1015.42 1015.38 1015.30 1015.18 1015.02 1014.86 1014.74 1014.62 1014.54 1014.42 1014.34 1014.22 1014.06 1013.90 1013.78 1013.70 1013.58 1013.42 1013.30 1013.18 1013.06 1012.98 1012.94 1012.86 1012.74 1012.66 1012.54 1012.46 1012.38 1012.26 1012.14 1012.06 1012.02 1011.98 1011.98 1011.90 1011.82 1011.78 1011.70 1011.58 1011.54 1011.54 1011.54 1011.58 1011.58 1011.62
1017.34 1017.30 1017.26 1017.26 1017.26 1017.22 1017.18 1017.06 1016.90 1016.70 1016.54 1016.42 1016.30 1016.18 1016.10 1015.98 1015.90 1015.86 1015.78 1015.70 1015.58 1015.50 1015.42 1015.26 1015.14 1015.06 1014.98 1014.86 1014.74 1014.62 1014.54 1014.42 1014.26 1014.14 1014.02 1013.86 1013.70 1013.58 1013.46 1013.30 1013.18 1013.06 1012.90 1012.78 1012.70 1012.58 1012.50 1012.38 1012.26 1012.18 1012.10 1011.98 1011.90 1011.82 1011.74 1011.70 1011.66 1011.62 1011.58 1011.50 1011.46 1011.38 1011.26 1011.26 1011.26 1011.26 1011.30 1011.30 1011.30
1017.30 1017.30 1017.26 1017.22 1017.18 1017.14 1017.02 1016.86 1016.70 1016.54 1016.42 1016.30 1016.18 1016.06 1015.98 1015.86 1015.74 1015.70 1015.62 1015.58 1015.46 1015.38 1015.26 1015.14 1014.98 1014.86 1014.78 1014.70 1014.58 1014.50 1014.42 1014.26 1014.14 1013.98 1013.86 1013.66 1013.50 1013.42 1013.26 1013.10 1012.98 1012.82 1012.70 1012.54 1012.42 1012.30 1012.22 1012.10 1011.94 1011.86 1011.74 1011.66 1011.58 1011.50 1011.42 1011.42 1011.30 1011.26 1011.18 1011.14 1011.10 1010.98 1010.94 1010.94 1010.94 1010.98 1010.98 1010.98 1010.98
1017.30 1017.26 1017.18 1017.14 1017.06 1016.94 1016.86 1016.70 1016.54 1016.42 1016.30 1016.18 1016.10 1015.98 1015.90 1015.78 1015.66 1015.58 1015.54 1015.46 1015.34 1015.26 1015.14 1015.06 1014.90 1014.74 1014.62 1014.54 1014.42 1014.38 1014.26 1014.14 1013.98 1013.82 1013.66 1013.46 1013.30 1013.14 1013.02 1012.90 1012.78 1012.62 1012.50 1012.38 1012.22 1012.06 1011.94 1011.82 1011.66 1011.58 1011.42 1011.30 1011.26 1011.14 1011.06 1011.02 1010.98 1010.90 1010.82 1010.74 1010.70 1010.66 1010.58 1010.54 1010.58 1010.58 1010.62 1010.62 1010.66
1017.26 1017.14 1017.06 1016.98 1016.90 1016.78 1016.66 1016.54 1016.42 1016.34 1016.26 1016.14 1016.02 1015.94 1015.86 1015.70 1015.58 1015.54 1015.46 1015.42 1015.30 1015.14 1015.02 1014.90 1014.82 1014.70 1014.54 1014.38 1014.26 1014.22 1014.14 1013.94 1013.82 1013.66 1013.46 1013.26 1013.14 1012.98 1012.86 1012.70 1012.54 1012.42 1012.30 1012.18 1012.02 1011.86 1011.70 1011.50 1011.38 1011.26 1011.14 1010.98 1010.86 1010.78 1010.70 1010.62 1010.54 1010.50 1010.42 1010.34 1010.26 1010.26 1010.22 1010.18 1010.22 1010.22 1010.22 1010.26 1010.22
1017.14 1017.02 1016.94 1016.86 1016.74 1016.66 1016.54 1016.42 1016.34 1016.26 1016.14 1016.06 1015.98 1015.86 1015.74 1015.66 1015.58 1015.50 1015.38 1015.26 1015.26 1015.14 1014.98 1014.78 1014.66 1014.54 1014.42 1014.26 1014.14 1014.06 1013.94 1013.78 1013.58 1013.46 1013.30 1013.14 1012.98 1012.86 1012.66 1012.50 1012.38 1012.26 1012.14 1011.98 1011.82 1011.62 1011.42 1011.22 1011.06 1010.94 1010.86 1010.70 1010.54 1010.42 1010.38 1010.26 1010.18 1010.10 1010.02 1009.98 1009.90 1009.86 1009.82 1009.78 1009.74 1009.78 1009.78 1009.82 1009.74
1017.02 1016.86 1016.78 1016.70 1016.58 1016.50 1016.42 1016.30 1016.26 1016.14 1016.06 1015.98 1015.90 1015.78 1015.70 1015.62 1015.54 1015.42 1015.26 1015.14 1015.10 1014.98 1014.86 1014.70 1014.54 1014.38 1014.26 1014.14 1013.98 1013.86 1013.74 1013.62 1013.42 1013.26 1013.10 1012.90 1012.78 1012.62 1012.46 1012.30 1012.18 1012.06 1011.90 1011.74 1011.58 1011.38 1011.14 1010.98 1010.86 1010.70 1010.54 1010.42 1010.26 1010.14 1010.02 1009.94 1009.86 1009.74 1009.66 1009.58 1009.54 1009.46 1009.42 1009.38 1009.34 1009.34 1009.34 1009.34 1009.26
1016.86 1016.74 1016.66 1016.54 1016.46 1016.42 1016.30 1016.22 1016.14 1016.06 1015.98 1015.86 1015.82 1015.70 1015.62 1015.50 1015.42 1015.34 1015.18 1015.02 1014.94 1014.86 1014.70 1014.58 1014.42 1014.22 1014.06 1013.94 1013.82 1013.66 1013.54 1013.42 1013.26 1013.02 1012.86 1012.70 1012.54 1012.42 1012.26 1012.14 1011.98 1011.82 1011.66 1011.50 1011.30 1011.14 1010.98 1010.82 1010.66 1010.50 1010.30 1010.14 1009.98 1009.86 1009.70 1009.62 1009.54 1009.42 1009.30 1009.22 1009.14 1009.10 1009.02 1008.98 1008.98 1008.94 1008.94 1008.90 1008.86
1016.70 1016.62 1016.54 1016.42 1016.38 1016.26 1016.18 1016.14 1016.06 1015.98 1015.90 1015.82 1015.70 1015.66 1015.54 1015.42 1015.30 1015.22 1015.06 1014.90 1014.78 1014.66 1014.54 1014.42 1014.26 1014.10 1013.90 1013.70 1013.58 1013.42 1013.22 1013.10 1012.98 1012.82 1012.62 1012.46 1012.30 1012.14 1011.98 1011.86 1011.70 1011.58 1011.42 1011.26 1011.06 1010.90 1010.78 1010.62 1010.46 1010.30 1010.14 1009.94 1009.78 1009.58 1009.46 1009.30 1009.18 1009.10 1008.98 1008.86 1008.78 1008.70 1008.66 1008.62 1008.54 1008.54 1008.54 1008.50 1008.46
1016.54 1016.46 1016.38 1016.30 1016.26 1016.14 1016.10 1016.02 1015.94 1015.90 1015.86 1015.74 1015.62 1015.54 1015.42 1015.30 1015.18 1015.02 1014.86 1014.74 1014.62 1014.50 1014.38 1014.22 1014.06 1013.90 1013.70 1013.54 1013.34 1013.14 1012.94 1012.78 1012.66 1012.50 1012.34 1012.18 1012.02 1011.86 1011.74 1011.62 1011.46 1011.30 1011.14 1010.98 1010.82 1010.70 1010.54 1010.42 1010.26 1010.14 1009.98 1009.82 1009.58 1009.42 1009.26 1009.14 1008.98 1008.82 1008.70 1008.58 1008.46 1008.38 1008.30 1008.26 1008.22 1008.18 1008.14 1008.10 1008.10
1016.42 1016.30 1016.26 1016.18 1016.10 1016.02 1015.98 1015.90 1015.86 1015.82 1015.74 1015.66 1015.54 1015.42 1015.26 1015.14 1014.98 1014.82 1014.70 1014.54 1014.42 1014.26 1014.14 1013.98 1013.86 1013.66 1013.46 1013.26 1013.14 1012.90 1012.70 1012.50 1012.30 1012.14 1012.02 1011.90 1011.78 1011.62 1011.50 1011.38 1011.22 1011.02 1010.82 1010.62 1010.54 1010.42 1010.26 1010.14 1009.98 1009.82 1009.70 1009.54 1009.30 1009.14 1009.02 1008.86 1008.70 1008.54 1008.42 1008.26 1008.14 1008.06 1007.98 1007.94 1007.90 1007.86 1007.82 1007.74 1007.70
1016.26 1016.22 1016.14 1016.06 1015.98 1015.94 1015.90 1015.86 1015.82 1015.74 1015.62 1015.54 1015.42 1015.26 1015.14 1014.94 1014.78 1014.62 1014.46 1014.30 1014.18 1014.02 1013.90 1013.74 1013.58 1013.38 1013.18 1012.98 1012.86 1012.66 1012.46 1012.26 1011.98 1011.74 1011.58 1011.54 1011.42 1011.30 1011.18 1011.06 1010.86 1010.70 1010.50 1010.34 1010.22 1010.14 1009.98 1009.86 1009.70 1009.54 1009.38 1009.22 1009.02 1008.86 1008.70 1008.54 1008.42 1008.26 1008.14 1007.98 1007.86 1007.74 1007.66 1007.62 1007.58 1007.54 1007.46 1007.42 1007.34
1016.18 1016.14 1016.02 1015.98 1015.90 1015.86 1015.82 1015.78 1015.70 1015.66 1015.54 1015.42 1015.26 1015.10 1014.94 1014.78 1014.58 1014.42 1014.26 1014.06 1013.90 1013.78 1013.66 1013.46 1013.26 1013.10 1012.86 1012.70 1012.50 1012.30 1012.14 1011.94 1011.70 1011.46 1011.26 1011.14 1011.06 1010.98 1010.86 1010.74 1010.54 1010.34 1010.18 1010.02 1009.94 1009.82 1009.70 1009.62 1009.50 1009.30 1009.14 1008.98 1008.82 1008.62 1008.42 1008.26 1008.14 1007.98 1007.86 1007.70 1007.58 1007.50 1007.38 1007.26 1007.22 1007.14 1007.10 1007.06 1006.98
1016.10 1016.02 1015.98 1015.90 1015.86 1015.78 1015.74 1015.70 1015.62 1015.54 1015.42 1015.22 1015.10 1014.94 1014.74 1014.54 1014.38 1014.22 1014.02 1013.86 1013.66 1013.46 1013.34 1013.18 1012.98 1012.74 1012.54 1012.34 1012.14 1011.94 1011.78 1011.58 1011.42 1011.22 1011.02 1010.86 1010.70 1010.62 1010.54 1010.42 1010.26 1010.06 1009.90 1009.74 1009.62 1009.54 1009.42 1009.34 1009.26 1009.14 1008.98 1008.82 1008.62 1008.42 1008.22 1008.02 1007.86 1007.74 1007.62 1007.50 1007.34 1007.22 1007.10 1006.98 1006.86 1006.82 1006.78 1006.70 1006.70
1016.02 1015.98 1015.90 1015.82 1015.74 1015.70 1015.66 1015.58 1015.50 1015.38 1015.26 1015.06 1014.90 1014.70 1014.50 1014.30 1014.18 1014.02 1013.82 1013.58 1013.42 1013.18 1013.02 1012.86 1012.66 1012.42 1012.22 1011.98 1011.78 1011.58 1011.42 1011.26 1011.14 1010.98 1010.82 1010.66 1010.46 1010.30 1010.18 1010.06 1009.90 1009.78 1009.62 1009.42 1009.30 1009.22 1009.14 1008.98 1008.90 1008.82 1008.70 1008.62 1008.42 1008.22 1007.98 1007.78 1007.58 1007.46 1007.34 1007.22 1007.02 1006.90 1006.74 1006.58 1006.50 1006.46 1006.42 1006.38 1006.34
1015.98 1015.90 1015.82 1015.78 1015.70 1015.62 1015.54 1015.42 1015.34 1015.22 1015.06 1014.90 1014.70 1014.54 1014.30 1014.14 1013.98 1013.78 1013.58 1013.38 1013.14 1012.94 1012.74 1012.54 1012.34 1012.14 1011.90 1011.70 1011.50 1011.34 1011.18 1011.02 1010.86 1010.70 1010.54 1010.34 1010.22 1010.02 1009.86 1009.70 1009.54 1009.38 1009.22 1009.06 1008.94 1008.82 1008.70 1008.58 1008.46 1008.42 1008.34 1008.26 1008.10 1007.90 1007.70 1007.54 1007.38 1007.22 1007.10 1006.90 1006.70 1006.54 1006.38 1006.22 1006.14 1006.06 1006.02 1005.98 1005.98
1015.90 1015.86 1015.78 1015.70 1015.62 1015.50 1015.42 1015.30 1015.18 1015.02 1014.86 1014.70 1014.54 1014.30 1014.14 1013.94 1013.74 1013.54 1013.34 1013.14 1012.90 1012.70 1012.46 1012.26 1011.98 1011.82 1011.66 1011.50 1011.26 1011.10 1010.94 1010.78 1010.62 1010.42 1010.26 1010.02 1009.86 1009.66 1009.46 1009.34 1009.14 1008.98 1008.82 1008.70 1008.54 1008.42 1008.26 1008.14 1008.06 1007.98 1007.86 1007.82 1007.70 1007.58 1007.38 1007.22 1007.06 1006.90 1006.74 1006.62 1006.46 1006.26 1006.14 1005.98 1005.78 1005.70 1005.58 1005.58 1005.58
1015.78 1015.74 1015.70 1015.62 1015.50 1015.38 1015.26 1015.14 1015.02 1014.86 1014.70 1014.54 1014.34 1014.14 1013.94 1013.74 1013.50 1013.26 1013.06 1012.86 1012.66 1012.42 1012.22 1012.02 1011.86 1011.66 1011.50 1011.30 1011.14 1010.94 1010.70 1010.46 1010.30 1010.14 1009.98 1009.74 1009.54 1009.30 1009.14 1008.98 1008.78 1008.58 1008.42 1008.26 1008.14 1007.98 1007.86 1007.70 1007.62 1007.54 1007.42 1007.38 1007.30 1007.18 1006.98 1006.78 1006.66 1006.54 1006.42 1006.26 1006.14 1005.98 1005.86 1005.78 1005.58 1005.42 1005.30 1005.22 1005.14
1015.70 1015.66 1015.58 1015.54 1015.38 1015.22 1015.10 1014.94 1014.86 1014.70 1014.50 1014.30 1014.14 1013.98 1013.74 1013.50 1013.26 1013.06 1012.86 1012.62 1012.42 1012.14 1011.94 1011.82 1011.70 1011.50 1011.26 1011.10 1010.94 1010.70 1010.42 1010.18 1010.02 1009.86 1009.70 1009.50 1009.26 1008.98 1008.78 1008.58 1008.42 1008.18 1007.98 1007.86 1007.70 1007.58 1007.42 1007.26 1007.14 1007.06 1006.98 1006.86 1006.82 1006.70 1006.54 1006.38 1006.22 1006.10 1005.98 1005.82 1005.70 1005.62 1005.58 1005.50 1005.38 1005.22 1005.10 1004.98 1004.86
1015.58 1015.54 1015.50 1015.42 1015.26 1015.10 1014.94 1014.78 1014.62 1014.46 1014.30 1014.14 1013.98 1013.78 1013.58 1013.30 1013.06 1012.82 1012.58 1012.42 1012.18 1011.94 1011.70 1011.58 1011.42 1011.18 1010.98 1010.82 1010.62 1010.42 1010.18 1009.98 1009.74 1009.54 1009.38 1009.18 1008.90 1008.66 1008.42 1008.18 1007.98 1007.74 1007.58 1007.42 1007.26 1007.06 1006.90 1006.78 1006.62 1006.54 1006.42 1006.34 1006.30 1006.18 1006.02 1005.90 1005.78 1005.62 1005.46 1005.34 1005.26 1005.18 1005.18 1005.14 1005.02 1004.90 1004.82 1004.74 1004.70
1015.54 1015.46 1015.38 1015.26 1015.14 1014.94 1014.74 1014.62 1014.50 1014.34 1014.14 1013.98 1013.78 1013.58 1013.34 1013.06 1012.78 1012.54 1012.30 1012.14 1011.98 1011.74 1011.58 1011.34 1011.18 1010.98 1010.74 1010.54 1010.30 1010.06 1009.86 1009.66 1009.42 1009.22 1008.98 1008.82 1008.58 1008.30 1008.02 1007.78 1007.46 1007.26 1007.06 1006.90 1006.70 1006.54 1006.38 1006.22 1006.10 1005.94 1005.86 1005.78 1005.78 1005.66 1005.54 1005.42 1005.26 1005.14 1004.98 1004.82 1004.74 1004.70 1004.66 1004.62 1004.54 1004.50 1004.46 1004.42 1004.42
1015.42 1015.34 1015.26 1015.14 1014.98 1014.78 1014.58 1014.46 1014.30 1014.14 1013.98 1013.82 1013.58 1013.30 1013.10 1012.86 1012.58 1012.30 1012.06 1011.86 1011.70 1011.54 1011.34 1011.18 1010.98 1010.78 1010.54 1010.30 1010.10 1009.86 1009.54 1009.26 1009.10 1008.86 1008.66 1008.42 1008.18 1007.94 1007.62 1007.34 1007.02 1006.78 1006.54 1006.42 1006.18 1005.98 1005.82 1005.66 1005.54 1005.42 1005.26 1005.22 1005.22 1005.14 1004.98 1004.82 1004.70 1004.54 1004.42 1004.26 1004.14 1004.14 1004.10 1004.02 1003.98 1003.98 1003.98 1003.98 1003.98
1015.30 1015.22 1015.14 1014.98 1014.82 1014.66 1014.50 1014.34 1014.14 1013.98 1013.82 1013.58 1013.30 1013.06 1012.86 1012.66 1012.42 1012.14 1011.90 1011.66 1011.50 1011.30 1011.14 1010.94 1010.78 1010.54 1010.30 1010.02 1009.86 1009.58 1009.30 1008.98 1008.70 1008.50 1008.26 1008.02 1007.78 1007.54 1007.22 1006.86 1006.54 1006.26 1006.10 1005.86 1005.66 1005.42 1005.26 1005.10 1004.94 1004.82 1004.70 1004.70 1004.62 1004.54 1004.38 1004.22 1004.06 1003.90 1003.78 1003.66 1003.58 1003.50 1003.46 1003.42 1003.42 1003.42 1003.42 1003.46 1003.50
1015.18 1015.14 1015.06 1014.86 1014.70 1014.54 1014.34 1014.18 1013.98 1013.82 1013.62 1013.42 1013.14 1012.86 1012.62 1012.38 1012.14 1011.90 1011.70 1011.50 1011.26 1011.06 1010.86 1010.62 1010.46 1010.26 1009.98 1009.70 1009.46 1009.26 1008.98 1008.70 1008.38 1008.10 1007.86 1007.62 1007.42 1007.14 1006.78 1006.42 1006.06 1005.78 1005.58 1005.34 1005.14 1004.90 1004.70 1004.50 1004.34 1004.18 1004.14 1004.06 1003.98 1003.86 1003.70 1003.58 1003.42 1003.22 1003.10 1003.02 1002.90 1002.82 1002.78 1002.82 1002.82 1002.82 1002.82 1002.86 1002.86
1015.10 1015.02 1014.94 1014.82 1014.58 1014.38 1014.22 1014.02 1013.86 1013.66 1013.42 1013.22 1012.98 1012.70 1012.46 1012.18 1011.86 1011.66 1011.46 1011.30 1011.10 1010.82 1010.54 1010.38 1010.18 1009.98 1009.70 1009.42 1009.14 1008.86 1008.58 1008.34 1008.10 1007.78 1007.46 1007.22 1006.98 1006.70 1006.38 1005.98 1005.62 1005.26 1005.02 1004.82 1004.58 1004.38 1004.14 1003.90 1003.70 1003.58 1003.50 1003.46 1003.34 1003.22 1003.10 1002.90 1002.74 1002.58 1002.46 1002.34 1002.26 1002.18 1002.14 1002.18 1002.18 1002.18 1002.22 1002.22 1002.26
1014.94 1014.90 1014.82 1014.70 1014.50 1014.26 1014.10 1013.90 1013.74 1013.54 1013.30 1013.02 1012.74 1012.50 1012.22 1011.98 1011.70 1011.46 1011.26 1011.14 1010.94 1010.66 1010.38 1010.14 1009.90 1009.66 1009.38 1009.10 1008.82 1008.46 1008.14 1007.94 1007.74 1007.46 1007.14 1006.86 1006.58 1006.34 1006.02 1005.62 1005.18 1004.82 1004.54 1004.26 1004.02 1003.78 1003.58 1003.30 1003.14 1002.98 1002.86 1002.82 1002.70 1002.58 1002.42 1002.26 1002.10 1001.94 1001.78 1001.70 1001.58 1001.54 1001.54 1001.54 1001.58 1001.54 1001.54 1001.50 1001.54
1014.82 1014.74 1014.70 1014.54 1014.42 1014.18 1013.98 1013.78 1013.62 1013.42 1013.14 1012.86 1012.54 1012.26 1012.02 1011.78 1011.54 1011.26 1011.06 1010.90 1010.74 1010.54 1010.26 1009.94 1009.62 1009.34 1009.06 1008.82 1008.54 1008.14 1007.78 1007.50 1007.30 1007.10 1006.82 1006.50 1006.18 1005.90 1005.62 1005.26 1004.82 1004.38 1004.06 1003.78 1003.50 1003.26 1003.02 1002.78 1002.54 1002.34 1002.22 1002.18 1002.10 1001.98 1001.82 1001.66 1001.46 1001.26 1001.14 1001.06 1000.98 1000.86 1000.86 1000.86 1000.86 1000.86 1000.78 1000.78 1000.78
1014.70 1014.66 1014.54 1014.42 1014.26 1014.10 1013.86 1013.70 1013.42 1013.26 1013.02 1012.74 1012.42 1012.14 1011.86 1011.58 1011.34 1011.06 1010.86 1010.70 1010.54 1010.34 1010.10 1009.74 1009.38 1009.06 1008.78 1008.54 1008.22 1007.82 1007.42 1007.06 1006.82 1006.62 1006.42 1006.14 1005.78 1005.46 1005.18 1004.86 1004.46 1004.02 1003.62 1003.34 1003.06 1002.82 1002.54 1002.26 1002.02 1001.82 1001.66 1001.58 1001.42 1001.34 1001.22 1001.06 1000.86 1000.70 1000.54 1000.42 1000.34 1000.26 1000.14 1000.14 1000.14 1000.14 1000.10 1000.06 1000.10
1014.58 1014.50 1014.42 1014.26 1014.14 1013.98 1013.78 1013.58 1013.30 1013.02 1012.82 1012.58 1012.30 1011.98 1011.66 1011.38 1011.14 1010.90 1010.70 1010.54 1010.34 1010.14 1009.86 1009.54 1009.14 1008.78 1008.46 1008.22 1007.90 1007.58 1007.14 1006.70 1006.42 1006.14 1005.94 1005.70 1005.42 1005.10 1004.78 1004.50 1004.14 1003.70 1003.26 1002.94 1002.62 1002.38 1002.10 1001.82 1001.54 1001.26 1001.14 1000.98 1000.86 1000.70 1000.58 1000.46 1000.26 1000.10 999.90 999.74 999.70 999.58 999.54 999.46 999.46 999.46 999.42 999.42 999.46
Wind_Speed
2 2 2 2 2 2 2 2 2 2 2 2 2 2 2 2 3 4 4 3 4 4 4 4 4 5 5 6 7 7 8 8 8 8 8 8 8 9 9 8 8 8 8 8 8 7 6 6 5 5 4 4 4 4 4 4 5 5 5 5 5 4 4 5 5 5 5 5 4
2 2 2 3 2 2 2 2 2 2 2 2 2 2 3 3 3 4 4 4 4 4 4 4 4 5 6 7 7 7 7 8 8 8 8 8 9 9 9 9 9 9 9 9 8 7 6 6 5 5 4 4 4 5 5 5 5 6 6 6 5 4 4 5 6 6 6 5 5
2 2 2 2 2 2 2 2 2 3 3 3 3 2 3 3 3 4 4 4 4 4 4 4 4 5 5 7 6 6 7 7 8 8 8 8 9 9 9 9 9 9 9 9 8 8 7 6 5 5 4 4 5 5 5 5 5 6 6 7 5 4 4 5 5 5 5 4 5
2 2 2 2 2 2 2 2 3 3 3 3 3 3 3 3 3 4 4 4 4 4 4 4 5 5 5 6 7 7 7 7 7 8 8 8 9 9 10 9 10 10 9 9 9 9 8 7 5 5 5 5 6 6 5 5 5 5 5 6 5 5 5 4 4 4 4 4 5
2 2 2 2 3 3 3 3 3 4 4 3 3 3 3 3 3 3 4 4 4 5 5 5 5 5 5 6 7 7 7 7 7 7 7 8 9 9 9 9 10 10 10 9 9 9 8 7 5 5 5 5 5 5 5 6 6 5 5 4 4 5 5 4 4 4 4 4 4
2 3 3 3 3 3 3 3 3 4 3 3 3 3 4 4 4 4 5 5 5 6 6 6 6 6 6 6 6 7 6 6 6 6 7 8 8 9 9 9 10 10 9 9 9 9 9 7 5 5 5 5 6 6 6 6 6 6 5 5 5 5 4 5 4 4 4 5 5
3 3 3 3 3 3 3 3 3 3 3 2 3 4 5 5 5 6 6 6 6 6 6 5 6 6 6 6 7 7 7 7 7 7 7 8 8 8 9 9 9 9 9 9 9 9 8 7 6 5 5 5 5 6 6 6 6 6 6 6 6 5 5 5 4 4 5 6 7
3 3 3 4 3 3 3 3 2 2 3 3 4 6 7 7 7 7 7 6 6 5 5 5 6 6 7 7 7 7 7 7 8 7 7 8 8 9 9 9 9 9 10 10 9 9 8 7 6 6 6 5 6 6 7 7 7 7 8 8 7 6 5 5 4 5 6 7 8
3 3 3 3 3 3 3 3 3 3 4 5 6 6 7 7 7 7 6 6 6 5 5 5 6 7 7 7 8 8 8 8 8 8 8 8 8 9 9 8 9 9 9 9 9 10 9 7 6 6 6 6 7 7 8 8 9 9 9 9 7 7 6 6 5 6 6 7 8
3 3 3 2 3 3 3 3 3 4 4 6 7 7 7 7 7 6 6 6 6 6 6 6 6 7 8 8 8 8 8 8 8 9 9 9 9 9 9 9 9 9 9 9 9 9 9 8 8 8 8 7 8 9 9 9 10 10 9 7 7 8 8 7 7 7 7 7 8
3 3 3 3 3 4 4 4 4 5 5 6 7 7 7 7 7 6 6 6 6 7 7 7 7 8 8 8 9 9 9 9 9 9 10 10 10 10 10 10 10 10 10 10 9 8 8 8 9 10 10 9 10 10 10 10 10 11 10 9 9 10 10 10 9 8 8 8 9
3 3 3 3 4 4 4 5 5 5 6 7 8 7 7 7 7 7 7 7 7 8 8 8 8 9 9 9 9 10 10 10 10 10 11 11 11 11 11 11 11 11 11 11 9 8 8 9 10 11 12 12 10 10 10 11 11 11 12 11 11 11 12 12 11 9 8 8 9
3 3 3 4 4 4 5 5 6 6 7 8 8 8 8 8 8 8 8 9 9 9 9 9 10 10 10 10 10 10 11 11 11 12 12 12 12 12 12 12 12 12 12 11 10 9 9 10 12 13 13 13 12 11 11 12 12 12 13 13 13 13 13 13 12 10 9 9 10
3 3 4 4 4 5 5 6 7 7 8 9 9 9 9 9 9 9 9 9 10 10 10 11 10 10 10 11 11 12 12 12 13 13 13 13 13 13 13 13 13 13 12 11 11 11 11 11 12 13 14 14 14 13 13 13 13 13 13 13 13 14 13 13 12 11 10 11 11
3 4 4 4 5 5 6 7 7 8 8 9 9 9 9 9 9 9 9 10 11 11 11 11 11 11 12 12 13 13 13 13 13 14 14 14 14 14 14 14 14 13 13 12 12 12 12 13 13 13 13 14 14 14 14 13 13 13 14 14 14 14 14 13 13 12 12 12 12
4 5 5 5 6 7 7 8 7 8 8 9 9 9 9 9 9 9 10 10 10 10 11 12 12 12 12 13 13 13 13 13 14 14 14 15 15 15 14 14 14 14 14 14 13 13 13 13 13 13 14 14 14 14 14 14 14 14 15 15 15 15 14 14 13 13 13 13 13
5 5 6 6 7 8 8 8 8 8 9 9 10 10 9 9 9 10 10 11 11 11 12 13 12 12 13 13 13 13 13 13 14 14 14 15 15 15 15 15 15 15 15 15 15 15 15 15 14 14 15 15 15 15 15 15 15 15 16 16 15 15 15 15 14 14 14 14 14
6 6 7 7 8 9 9 9 9 9 9 10 10 10 10 10 10 10 11 11 11 12 13 14 13 13 13 14 13 12 12 13 14 14 14 15 15 15 16 16 16 15 15 16 16 17 17 17 17 16 16 16 16 16 16 16 16 16 16 16 16 16 16 16 16 15 15 15 15
6 7 7 8 8 9 9 10 10 10 10 10 10 10 10 11 11 11 12 12 12 12 13 14 13 13 13 14 14 13 13 13 14 15 15 15 15 15 16 16 16 16 16 17 17 18 18 18 18 18 17 17 16 16 16 16 16 16 17 17 17 17 17 17 17 16 16 16 16
7 7 8 8 9 9 9 10 10 10 10 9 10 11 11 11 12 12 12 13 13 13 13 13 14 14 14 15 15 14 14 13 14 15 15 15 15 16 16 16 17 17 18 18 18 18 18 18 19 19 19 18 18 17 17 17 16 17 17 17 17 17 17 17 17 17 17 17 17
7 7 8 8 8 9 9 9 9 10 10 10 11 11 11 12 12 12 13 13 13 13 13 14 14 14 15 15 16 15 15 13 14 14 15 15 16 17 17 17 18 18 17 17 18 18 19 19 19 19 19 19 19 18 17 16 16 17 17 16 16 17 17 18 18 18 18 18 18
7 7 7 8 8 9 9 9 9 9 10 10 11 11 11 12 12 13 13 13 13 13 14 14 14 14 15 15 16 16 15 14 14 15 15 15 16 17 17 17 17 18 18 18 18 18 19 19 19 19 19 19 19 19 18 18 17 17 17 17 17 17 18 18 18 18 18 18 19
7 7 7 7 8 9 9 9 9 10 10 11 11 11 12 12 12 13 13 13 13 13 13 13 13 14 15 15 15 16 16 15 15 16 16 16 16 17 17 16 17 17 17 17 16 16 16 16 17 18 18 17 18 18 19 19 18 18 18 18 18 18 18 17 17 17 17 18 19
7 7 7 7 8 9 9 9 10 10 11 11 11 12 12 12 13 13 13 13 13 13 13 12 13 14 14 15 15 15 16 16 17 17 17 16 16 16 16 16 16 16 15 14 14 14 14 13 13 14 15 15 15 16 16 17 17 17 17 18 18 18 17 17 17 17 17 18 19
7 7 8 8 9 9 9 9 10 11 11 12 12 12 12 13 13 13 13 14 14 14 14 14 14 14 14 14 14 15 15 16 17 17 17 16 16 15 15 14 14 13 13 12 16 19 20 18 15 13 12 13 13 14 14 15 15 16 16 17 17 17 17 17 17 17 17 18 18
7 8 8 8 9 9 10 10 10 11 11 12 12 13 13 13 13 13 13 14 14 14 14 14 14 14 13 13 14 15 15 15 15 16 16 16 16 16 15 14 13 12 12 14 19 22 23 24 22 19 16 13 13 13 14 14 14 15 15 16 16 17 17 18 18 18 18 17 18
7 7 8 9 9 9 10 10 10 11 12 12 13 13 14 13 13 13 14 14 15 15 14 14 13 13 13 13 14 15 15 14 14 15 16 16 16 17 16 15 14 12 12 16 21 24 25 25 26 24 21 17 15 14 14 14 14 15 15 15 16 16 17 19 19 19 19 18 18
7 7 8 9 9 10 10 10 11 11 12 13 13 13 14 14 14 14 15 15 15 14 14 13 12 12 11 11 13 14 15 15 15 15 15 16 17 17 17 16 14 14 16 20 24 25 26 26 27 26 25 21 17 15 15 15 15 15 15 14 14 15 16 16 17 17 18 19 19
7 7 8 8 9 10 11 11 11 12 12 13 13 14 14 14 15 15 15 15 15 14 13 12 11 11 11 13 14 15 16 17 16 15 15 16 17 17 17 17 16 17 20 24 26 27 27 27 27 27 27 25 18 14 12 13 13 14 14 13 13 14 14 13 13 14 15 16 17
7 7 8 9 10 10 11 11 11 12 12 12 13 14 14 15 15 16 16 16 16 15 14 12 12 13 14 15 16 16 16 16 16 15 16 17 17 18 18 18 17 18 21 25 27 28 28 28 28 28 28 27 22 17 14 13 13 13 13 13 14 15 16 15 15 14 14 13 14
7 7 8 9 10 11 11 11 12 12 12 12 13 14 15 15 16 16 16 16 15 15 15 14 15 16 17 17 17 17 17 17 17 16 17 17 18 19 19 19 20 20 22 25 27 29 29 29 29 29 29 28 23 18 15 14 14 14 14 14 15 17 17 17 16 16 15 14 14
7 7 8 9 10 11 11 12 12 12 13 14 14 15 15 16 16 16 15 15 15 16 16 16 17 17 18 18 18 18 18 18 18 18 18 18 19 20 20 20 20 21 22 26 28 29 29 29 29 29 29 28 24 20 17 16 16 15 16 17 18 19 19 17 16 17 18 17 16
7 7 8 9 10 11 12 12 12 13 13 14 14 15 15 16 16 16 15 14 14 15 16 17 17 17 18 18 19 19 19 19 19 19 19 20 20 21 21 21 19 20 22 26 28 29 29 29 29 29 29 29 24 20 18 17 15 15 15 17 18 19 20 20 19 19 19 20 18
7 7 8 9 11 11 12 12 12 12 13 14 14 15 15 15 16 16 16 14 14 14 15 15 16 16 17 17 18 18 18 17 18 18 19 20 20 21 21 19 17 18 22 27 29 29 30 30 30 30 30 29 23 19 17 17 16 16 16 17 18 19 20 21 21 21 21 22 20
6 7 9 10 11 12 12 12 12 12 13 14 14 15 15 15 16 16 15 15 15 15 15 15 15 15 16 17 17 17 18 18 18 19 19 20 20 21 21 21 20 22 25 29 30 31 31 31 31 31 30 27 20 17 16 17 17 18 18 19 20 21 21 22 21 22 22 22 21
6 7 8 10 11 12 12 13 13 13 14 14 15 15 15 15 15 15 14 14 15 15 15 15 15 16 17 17 17 17 18 19 19 20 20 19 20 21 22 22 22 24 27 30 31 31 32 32 32 31 30 25 18 15 14 15 15 17 19 20 21 21 22 22 22 21 21 21 21
6 7 8 10 11 12 13 13 13 14 14 15 15 15 15 16 16 15 14 13 15 15 16 15 16 17 17 18 18 18 18 19 19 20 20 20 20 21 22 22 23 24 26 29 30 31 32 32 32 31 28 21 16 14 14 14 13 15 17 19 20 21 21 21 21 21 21 22 22
6 7 8 10 11 12 13 13 13 14 15 15 15 15 15 15 15 15 14 14 14 15 16 16 17 17 18 18 18 19 20 19 20 20 20 20 20 20 21 22 22 23 24 27 29 31 31 32 32 31 27 20 16 14 13 12 13 14 15 16 17 18 19 18 17 18 20 22 24
7 7 8 10 11 12 13 13 13 14 14 15 16 16 15 15 14 14 14 14 14 15 16 17 18 18 18 18 19 19 20 20 20 20 20 20 20 21 21 22 22 22 23 26 29 31 32 32 32 31 29 22 17 14 12 12 13 14 15 15 15 16 17 16 16 16 18 21 27
7 7 8 10 11 11 12 13 13 14 14 14 15 16 16 15 14 14 14 14 14 14 15 17 18 19 19 18 19 19 20 20 20 20 19 19 20 22 23 22 22 22 24 26 29 31 32 32 32 32 29 22 16 13 11 11 12 13 14 14 14 14 14 15 15 15 16 18 24
7 8 9 10 10 11 12 13 14 14 14 14 15 15 15 14 14 14 14 14 14 15 15 15 18 19 20 19 18 18 19 21 21 20 20 20 21 21 22 21 21 22 23 25 27 30 31 31 32 32 29 23 17 13 11 10 12 13 15 15 14 13 13 13 14 14 15 16 18
Wind_Direction
201 199 199 201 205 215 227 238 235 232 235 243 259 269 274 279 283 283 282 278 276 276 277 275 275 275 276 276 276 275 276 276 275 273 270 267 266 265 263 262 257 251 246 242 235 227 219 210 208 208 207 202 199 200 199 192 186 186 191 195 199 200 204 210 220 226 232 238 243
221 213 209 209 212 220 233 249 253 253 252 250 256 262 267 271 277 281 282 279 276 276 277 280 278 279 279 280 278 277 277 277 277 276 275 272 270 268 267 265 260 253 247 243 236 230 223 213 210 211 214 212 206 206 205 197 188 189 194 199 201 201 204 213 219 222 226 232 236
235 229 220 218 223 236 254 271 276 277 275 271 264 261 263 266 271 277 280 279 278 279 280 284 283 283 284 285 284 281 278 277 277 278 278 277 275 273 271 268 264 257 251 243 237 232 225 215 212 213 216 218 213 213 213 206 195 195 199 201 202 204 208 217 217 218 221 228 232
237 233 232 235 243 250 258 268 275 275 274 272 269 265 264 266 271 276 280 283 286 286 285 286 287 287 286 287 286 284 281 278 277 277 278 278 277 275 273 270 267 261 254 246 240 235 229 218 217 217 220 220 218 219 219 213 205 204 206 205 205 209 214 221 218 219 223 232 234
244 235 231 237 244 246 246 249 259 264 267 268 273 276 278 279 283 286 290 293 293 291 290 289 289 287 286 285 285 284 283 281 278 276 276 276 275 275 273 271 266 262 257 249 243 239 234 224 225 225 226 223 223 223 222 215 212 213 217 217 216 217 221 224 223 223 227 236 239
252 247 242 239 243 244 244 242 246 252 258 264 276 286 289 293 295 296 296 294 292 291 290 289 287 287 287 288 288 287 286 283 279 275 273 273 273 273 272 269 264 261 257 252 248 244 240 231 234 234 232 230 233 233 228 217 217 219 225 232 231 229 228 228 227 227 230 236 241
244 249 250 247 244 244 246 247 248 253 260 273 287 291 292 293 294 292 289 288 290 291 291 289 290 290 291 293 292 290 288 285 280 274 270 270 270 269 267 265 262 258 255 253 251 248 244 235 238 240 240 237 240 238 231 222 221 225 231 237 239 236 233 233 231 231 233 236 238
240 241 244 245 243 247 253 259 270 282 291 298 295 292 290 289 288 288 288 290 291 291 291 292 292 292 291 292 290 288 286 284 281 277 271 268 267 266 264 262 259 256 253 250 249 248 245 240 240 240 241 240 243 240 233 225 225 229 234 239 243 242 238 235 233 233 236 238 239
251 249 248 251 255 264 276 287 297 303 305 300 292 288 285 285 285 287 289 291 290 290 292 294 293 292 291 289 287 285 284 283 281 279 276 270 267 265 263 260 257 254 251 247 245 244 243 242 241 240 239 239 242 241 236 227 228 231 235 240 245 246 244 239 236 236 237 238 240
269 273 279 289 296 303 309 314 311 305 298 293 287 285 284 285 286 287 288 289 292 295 296 294 294 294 293 290 288 286 285 284 283 282 280 277 272 269 265 262 257 254 251 246 243 241 241 242 242 242 241 238 239 241 239 233 232 234 237 241 244 247 248 244 239 237 238 239 241
283 293 304 314 317 320 321 318 309 300 293 289 288 288 290 292 294 294 294 297 300 300 298 296 297 297 295 293 291 290 289 288 288 287 286 285 281 277 273 269 263 259 255 250 244 241 239 240 242 242 242 240 239 240 240 237 235 236 239 242 243 245 247 247 243 240 240 240 241
300 308 315 318 318 318 316 309 302 296 293 292 294 298 301 304 304 305 306 308 306 304 302 302 302 301 299 297 296 295 294 294 293 292 290 289 286 283 280 276 271 267 262 257 250 245 241 240 240 241 242 241 239 239 238 237 236 237 239 241 241 243 245 246 244 242 241 241 242
313 318 318 316 314 310 305 300 297 297 299 302 306 310 312 313 313 313 313 312 310 308 307 306 304 302 300 299 299 298 298 297 295 294 292 290 288 286 283 281 277 273 270 265 258 252 247 243 241 240 241 240 240 239 237 235 235 236 238 240 240 241 242 244 243 243 243 242 243
319 316 311 307 304 302 301 301 302 306 310 313 315 317 317 316 316 316 315 313 311 310 308 307 305 302 301 300 299 299 298 296 295 293 291 289 287 286 284 282 280 277 275 272 267 260 255 251 246 243 241 241 240 239 237 235 234 234 236 237 238 239 241 242 242 243 243 243 244
314 307 302 300 301 303 305 308 310 313 317 317 318 318 318 317 316 316 315 313 311 309 308 307 305 303 301 300 298 297 296 295 293 291 289 288 286 285 284 283 282 280 278 277 273 268 263 258 254 249 246 244 243 241 238 236 235 234 234 235 236 238 240 241 241 241 242 242 244
305 302 300 302 306 309 312 314 316 318 318 318 318 318 318 316 316 315 314 312 310 308 307 305 303 302 300 298 297 296 295 293 292 290 288 287 286 285 284 284 283 282 281 280 277 274 270 266 261 257 253 250 247 244 241 238 237 236 236 236 237 238 240 241 241 241 241 241 243
302 303 304 308 312 315 317 318 318 319 318 317 318 317 316 315 314 313 311 309 308 306 304 302 301 300 299 297 296 295 294 292 291 289 288 287 286 286 285 284 283 283 282 281 279 277 274 271 268 264 260 257 254 250 247 243 241 239 238 238 238 239 240 241 242 242 242 242 242
303 306 310 314 317 318 318 318 318 318 317 317 316 315 314 313 312 310 308 306 304 303 301 299 298 296 296 295 294 293 292 291 289 288 287 286 286 285 285 284 283 283 282 281 279 277 275 273 271 268 265 262 259 256 253 249 247 244 242 241 241 241 241 242 243 243 244 244 244
305 310 314 317 318 318 318 318 317 317 316 315 314 313 311 310 308 306 304 303 301 299 298 297 296 294 293 292 292 291 290 288 287 286 285 285 285 284 284 283 283 282 281 280 278 277 276 275 273 271 269 266 263 260 257 254 252 249 247 245 244 244 243 243 243 244 245 245 246
307 312 315 316 317 317 316 316 316 316 315 314 312 310 308 306 305 303 301 299 298 297 296 294 294 293 292 292 291 289 288 287 286 285 285 284 284 283 283 283 283 282 281 279 278 277 276 275 274 273 271 269 267 264 261 257 255 252 250 248 247 246 245 244 245 245 245 246 247
309 311 313 314 314 314 314 314 314 314 313 311 309 307 304 303 301 299 297 296 296 296 295 293 292 291 291 291 290 289 287 286 285 284 284 284 283 283 283 283 282 281 280 278 277 276 275 275 274 273 272 271 270 267 265 262 259 256 253 251 249 248 247 246 246 246 246 246 247
308 309 311 312 312 312 312 313 313 312 310 308 305 303 301 300 298 296 295 295 295 294 293 291 290 289 289 289 288 288 287 286 284 283 283 283 282 282 282 282 281 280 278 276 275 274 274 273 272 271 270 269 268 267 266 264 262 259 257 254 252 250 249 248 247 246 246 246 247
306 308 309 309 310 311 312 312 312 310 308 305 303 301 299 297 296 295 295 294 293 292 291 289 288 287 287 286 286 286 286 285 284 282 281 280 280 280 280 280 278 276 275 273 272 271 271 270 269 267 266 265 265 264 263 262 261 260 258 256 254 252 250 248 247 246 245 245 246
305 307 308 310 311 311 311 311 310 308 306 303 302 300 298 297 296 296 295 294 292 291 289 288 288 286 286 285 284 284 283 283 283 282 281 280 279 278 278 277 276 274 273 272 271 270 269 269 269 268 267 265 264 263 261 260 259 258 257 256 255 254 252 249 247 245 244 244 245
304 306 307 309 309 310 309 309 307 305 303 301 300 299 298 297 297 296 295 294 293 291 290 289 288 287 286 285 284 282 282 282 283 283 283 282 280 279 278 277 276 274 273 271 271 271 271 270 270 270 270 269 267 265 263 260 258 257 256 255 255 254 253 251 248 245 244 243 243
304 306 307 307 308 307 307 305 303 302 300 300 300 299 298 297 297 296 295 295 294 293 292 291 289 288 287 285 285 285 284 283 283 284 284 284 283 281 279 278 276 275 272 271 272 272 272 271 270 270 270 270 270 269 267 264 260 257 255 253 252 251 251 250 249 247 245 244 242
303 304 304 304 305 305 303 302 301 300 300 299 299 299 298 298 298 297 296 295 294 293 292 291 290 289 288 287 287 287 287 286 286 285 284 283 282 281 280 278 276 274 272 271 271 271 271 270 269 267 266 266 266 266 266 265 264 261 258 255 252 249 247 246 246 246 246 245 244
299 300 301 303 302 301 300 300 301 300 300 299 299 298 298 298 298 297 296 295 295 295 294 293 292 292 291 291 290 290 290 289 288 286 285 283 281 280 279 277 276 274 272 272 272 272 271 270 268 267 265 263 262 262 262 263 263 262 261 259 256 252 249 246 244 243 243 243 243
295 297 299 300 299 299 300 301 300 299 299 299 298 298 298 298 298 297 297 296 297 296 296 296 296 296 295 294 294 293 292 290 288 287 285 283 281 279 278 278 277 276 275 275 275 274 273 272 270 268 266 264 262 260 258 257 257 258 258 258 257 256 254 251 248 244 241 239 238
292 294 295 296 296 297 299 299 298 298 298 298 299 299 299 299 298 298 298 298 297 297 297 298 298 297 295 294 294 293 292 290 289 287 286 284 283 281 280 279 278 277 276 276 276 275 274 273 272 270 268 266 263 261 258 255 254 253 253 253 253 254 255 256 255 252 248 242 238
290 291 293 294 295 296 297 298 298 299 299 300 300 299 299 298 298 297 297 297 298 298 298 298 297 295 294 293 293 292 291 290 289 288 286 285 283 282 281 280 278 277 277 276 276 276 275 273 272 270 268 266 263 260 256 254 252 251 250 249 249 250 251 253 254 254 253 250 245
288 290 292 294 295 296 297 299 300 300 300 300 299 299 298 297 296 296 296 297 298 299 300 299 297 296 295 294 293 292 291 290 289 288 286 284 283 282 281 280 278 277 276 276 276 275 274 273 271 270 268 266 263 260 256 253 252 250 249 248 248 248 247 247 248 250 250 251 249
288 289 292 294 296 298 299 301 301 301 300 299 298 297 296 296 296 297 297 298 299 300 300 299 298 296 295 295 294 292 290 289 287 286 285 284 282 281 280 279 278 277 276 276 276 275 274 273 271 270 268 266 264 260 256 253 250 248 247 246 245 244 244 243 243 244 245 246 247
288 291 293 296 297 299 301 302 301 301 299 298 297 296 296 297 298 299 299 300 300 300 298 297 295 294 293 292 291 290 289 287 286 285 284 283 282 281 280 278 277 277 277 278 277 277 276 274 273 271 269 267 264 260 255 251 249 246 244 243 243 242 241 240 240 240 241 241 242
290 294 297 298 300 301 302 302 302 301 299 298 297 297 297 297 297 298 299 300 300 299 297 295 293 292 291 290 288 287 286 286 285 284 283 283 282 281 280 278 277 278 278 279 279 278 277 276 274 272 270 268 264 259 253 250 247 245 243 242 241 240 239 238 238 238 237 237 237
293 296 297 299 300 301 302 302 302 301 300 299 298 298 298 298 298 298 299 300 301 299 298 296 294 293 291 290 289 287 286 286 286 285 284 283 282 282 280 279 279 279 279 280 280 279 278 277 275 273 271 268 263 256 251 248 246 243 241 240 240 239 238 237 236 235 235 234 233
294 296 297 298 300 301 302 302 302 302 301 299 298 298 298 299 299 300 301 302 302 300 298 297 295 293 292 291 290 288 287 286 286 286 285 284 283 282 281 281 280 280 280 280 280 280 279 278 277 275 272 269 262 255 250 247 244 242 240 239 239 238 236 236 235 234 233 232 231
295 296 297 298 299 300 301 302 301 300 299 299 298 298 298 299 300 301 302 303 302 301 299 297 295 293 292 292 290 289 288 286 285 285 285 284 283 282 281 281 281 281 281 281 281 281 280 279 278 277 274 269 263 256 251 246 243 241 240 239 238 237 235 233 233 232 231 230 228
296 297 298 298 298 299 300 300 299 298 298 298 298 298 299 299 300 301 302 302 301 299 298 296 295 293 292 292 291 290 289 287 286 285 284 284 283 282 282 282 282 281 281 282 282 282 282 281 280 279 277 273 266 258 251 247 244 241 240 239 239 237 234 232 230 230 229 228 227
297 298 298 298 297 298 298 298 297 296 296 297 298 298 299 299 299 300 301 301 300 298 296 294 294 293 293 293 292 291 290 289 288 287 286 284 284 284 284 283 282 282 282 282 283 283 282 282 281 280 279 275 268 260 253 248 245 242 240 238 237 236 234 230 228 227 227 227 226
298 299 299 297 297 297 297 296 296 296 296 296 296 296 297 298 298 300 301 301 300 298 296 294 294 294 293 293 292 291 291 291 290 289 288 287 286 286 285 284 283 283 282 282 283 282 282 282 281 280 279 276 270 262 254 248 246 243 241 239 237 235 233 230 227 226 225 224 224